User: anonymous   Login
Location: Barnston
(51.8500°N, 0.4000°E)
Time: 03:37:50
(UTC+00:00)
Language:

SL-16 R/B - Orbit

View from above orbital plane
View from above orbital plane
View from above satellite
View from above satellite

Ground track
Ground track

The orbit data is extracted from the following two-line orbital elements,

1 31793U 07029B   24060.83336097 -.00000043  00000-0  26024-5 0  9999
2 31793  70.9739 285.2595 0002059 275.7626 160.0875 14.14593172860960
Epoch (UTC): 29 February 2024 20:00:02
Eccentricity: 0.0002059
inclination: 70.9739°
perigee height: 842 km
apogee height: 845 km
right ascension of ascending node: 285.2595°
argument of perigee: 275.7626°
revolutions per day: 14.14593172
mean anomaly at epoch: 160.0875°
orbit number at epoch: 86096

The dashed part of the orbit path shows where the satellite is in the earth's shadow,  

DLR